Home   Weather   Bayreuth   Past weeks

Flag for Germany Past Weather in Bayreuth, Bavaria, Germany — Yesterday and Last 2 Weeks

Now
57 °F

Clear.


Feels Like: 57 °F
Forecast: 63 / 80 °F
Wind: No wind

Location: Grafenwoehr

Current Time: Jul 21, 2017 at 3:05:01 am

Latest Report: Jul 21, 2017 at 1:58 am


Visibility: N/A

Pressure: 29.94 "Hg

Humidity: 100%

Dew Point: 57 °F

Location of BayreuthLocation

Past Weather in Bayreuth — Graph

°F

Bayreuth Temperature Yesterday

Maximum temperature yesterday: 78 °F (at 11:58 am)
Minimum temperature yesterday: 61 °F (at 5:58 am)
Average temperature yesterday: 69 °F

High & Low Weather Summary for the Past Weeks

 TemperatureHumidityPressure
High87 °F (Jul 19, 4:58 pm)100% (Jul 6, 3:58 am)30.29 "Hg (Jul 6, 3:58 am)
Low45 °F (Jul 16, 3:58 am)31% (Jul 6, 3:58 pm)29.74 "Hg (Jul 10, 2:58 pm)
Average65 °F77%29.99 "Hg
* Reported Jul 6 1:58 am — Jul 21 1:58 am, Bayreuth. Weather by CustomWeather, © 2017

Note: Actual official high and low records may vary slightly from our data, if they occured in-between our weather recording intervals... More about our weather records

Advertising

Bayreuth Weather History for the Previous 24 Hours

Scroll right to see more
 ConditionsComfort  
Time TempWeatherWind HumidityBarometerVisibility
1:58 am
Fri, Jul 21
57 °FClear.No wind100%29.94 "HgN/A
12:58 am59 °FPassing clouds.No wind95%29.94 "HgN/A
11:58 pm
Thu, Jul 20
61 °FClear.No wind94%29.93 "HgN/A
10:58 pm62 °FClear.No wind89%29.92 "HgN/A
9:58 pm66 °FClear.No wind78%29.92 "HgN/A
8:58 pm69 °FSunny.3 mph73%29.91 "HgN/A
7:58 pm70 °FPassing clouds.6 mph73%29.89 "HgN/A
7:00 pm70 °FScattered clouds.5 mph73%29.90 "HgN/A
6:58 pm72 °FPartly sunny.3 mph69%29.90 "HgN/A
6:21 pm70 °FDrizzle. Broken clouds.8 mph73%29.90 "HgN/A
5:58 pm70 °FMore clouds than sun.10 mph75%29.89 "HgN/A
4:58 pm72 °FOvercast.8 mph68%29.87 "HgN/A
3:58 pm77 °FBroken clouds.10 mph56%29.87 "HgN/A
2:58 pm77 °FBroken clouds.9 mph55%29.85 "HgN/A
1:58 pm77 °FBroken clouds.7 mph57%29.85 "HgN/A
12:58 pm77 °FPartly sunny.10 mph59%29.85 "HgN/A
11:58 am78 °FPassing clouds.9 mph54%29.84 "HgN/A
10:58 am77 °FSunny.5 mph57%29.85 "HgN/A
9:58 am73 °FScattered clouds.6 mph67%29.85 "HgN/A
8:58 am70 °FSunny.8 mph75%29.86 "HgN/A
7:58 am65 °FSunny.No wind92%29.85 "HgN/A
6:58 am63 °FPartly sunny.No wind97%29.84 "HgN/A
5:58 am61 °FPassing clouds.No wind100%29.83 "HgN/A
4:58 am62 °FPassing clouds.5 mph97%29.85 "HgN/A
4:13 am63 °FClear.No wind100%29.86 "HgN/A
4:07 am63 °FPassing clouds.No wind100%29.86 "HgN/A
Weather by CustomWeather, © 2017

See weather overviewHow to use our weather pages